�N����,����,�~����,�C��,���x,�C��,����,���ϕ���,�ő�u�ԕ���,�ő厞����,���˗�,�I�_���x,�n�����x,�ő啗���N��,DTYPE
"17/08/15","00:10",0.0,24.4,85.3,1000.0,343.2,1.3,2.2,346.6,0.00,21.8,26.4,"00:07:20",1
"17/08/15","00:20",0.4,24.2,86.5,1000.3,318.5,1.1,1.8,327.9,0.00,21.8,26.3,"00:13:20",1
"17/08/15","00:30",0.4,24.0,87.5,1000.3,319.2,1.0,2.1,326.6,0.00,21.8,26.2,"00:22:40",1
"17/08/15","00:40",0.8,23.7,88.8,1000.3,331.9,1.0,2.2,336.1,0.00,21.8,26.1,"00:30:16",1
"17/08/15","00:50",0.6,23.6,89.7,1000.0,343.6,0.5,1.1,353.5,0.00,21.8,26.0,"00:40:56",1
"17/08/15","01:00",0.0,23.3,90.0,999.6,340.6,0.8,2.0,341.7,0.00,21.6,26.2,"00:53:04",1
"17/08/15","01:10",0.0,23.1,90.6,1000.0,291.8,0.6,1.1,339.7,0.00,21.5,26.0,"01:00:40",1
"17/08/15","01:20",0.0,23.0,90.9,999.8,260.2,0.5,1.1,248.5,0.00,21.5,25.9,"01:16:40",1
"17/08/15","01:30",0.2,22.9,91.1,1000.0,298.9,0.6,1.6,322.0,0.00,21.4,25.9,"01:27:44",1
"17/08/15","01:40",0.0,22.8,91.6,999.8,299.8,0.5,1.1,340.2,0.00,21.4,25.9,"01:35:36",1
"17/08/15","01:50",0.0,22.7,91.6,999.8,257.1,0.5,1.2,229.1,0.00,21.3,25.9,"01:41:52",1
"17/08/15","02:00",0.0,22.5,91.8,999.6,257.8,0.5,1.0,233.5,0.00,21.1,25.7,"01:55:52",1
"17/08/15","02:10",0.2,22.5,92.3,999.6,263.6,0.5,1.0,255.0,0.00,21.2,25.6,"02:04:08",1
"17/08/15","02:20",0.4,22.4,92.3,999.6,266.2,0.3,0.8,251.7,0.00,21.1,25.7,"02:12:56",1
"17/08/15","02:30",0.4,22.4,92.6,999.8,289.0,0.5,1.0,328.0,0.00,21.2,25.9,"02:23:20",1
"17/08/15","02:40",0.2,22.4,92.9,999.3,272.1,0.3,0.8,262.3,0.00,21.2,25.8,"02:37:52",1
"17/08/15","02:50",0.4,22.4,93.1,999.3,280.8,0.5,0.9,314.3,0.00,21.3,25.4,"02:43:36",1
"17/08/15","03:00",0.0,22.3,93.3,999.6,271.1,0.3,1.0,230.2,0.00,21.2,25.7,"02:58:40",1
"17/08/15","03:10",0.0,22.4,93.5,999.6,301.1,0.5,1.0,311.9,0.00,21.3,25.6,"03:04:40",1
"17/08/15","03:20",0.0,22.5,93.7,999.3,266.2,0.2,0.5,288.9,0.00,21.5,25.7,"03:15:20",1
"17/08/15","03:30",0.0,22.5,93.6,999.6,269.7,0.3,0.8,242.5,0.00,21.5,25.5,"03:29:36",1
"17/08/15","03:40",0.2,22.4,93.9,999.3,303.9,0.3,0.8,343.3,0.00,21.4,25.5,"03:38:00",1
"17/08/15","03:50",0.0,22.5,94.0,999.6,268.2,0.2,0.5,316.3,0.00,21.5,25.5,"03:40:40",1
"17/08/15","04:00",0.0,22.5,94.2,999.3,255.8,0.1,0.4,249.8,0.00,21.6,25.4,"03:52:08",1
"17/08/15","04:10",0.2,22.5,94.1,999.6,343.2,0.5,0.9,349.6,0.00,21.5,25.6,"04:04:16",1
"17/08/15","04:20",0.0,22.5,94.3,999.3,336.1,0.6,1.2,331.2,0.00,21.6,25.6,"04:16:40",1
"17/08/15","04:30",0.0,22.5,94.2,999.1,316.6,0.3,1.0,320.9,0.00,21.6,25.5,"04:20:24",1
"17/08/15","04:40",0.0,22.6,94.5,999.1,260.7,0.2,0.6,332.6,0.00,21.7,25.5,"04:32:56",1
"17/08/15","04:50",0.0,22.6,94.4,999.1,263.2,0.3,0.6,243.0,0.00,21.7,25.3,"04:48:24",1
"17/08/15","05:00",0.2,22.6,94.5,999.1,261.6,0.2,0.9,258.6,0.00,21.7,25.4,"04:50:24",1
"17/08/15","05:10",0.0,22.6,94.6,999.1,270.7,0.3,0.9,340.2,0.00,21.7,25.2,"05:03:52",1
"17/08/15","05:20",0.0,22.5,94.6,998.9,286.7,0.3,0.6,340.9,0.00,21.6,25.3,"05:15:36",1
"17/08/15","05:30",0.0,22.5,94.7,999.3,297.8,0.5,0.8,307.7,0.00,21.6,25.4,"05:20:40",1
"17/08/15","05:40",0.0,22.7,94.9,999.3,319.1,0.3,0.9,335.4,0.00,21.9,25.3,"05:32:40",1
"17/08/15","05:50",0.0,22.7,94.7,999.1,336.2,0.5,1.2,340.3,0.00,21.8,25.4,"05:44:40",1
"17/08/15","06:00",0.0,22.8,94.9,999.1,346.4,0.3,0.9,329.9,0.00,22.0,25.4,"05:53:52",1
"17/08/15","06:10",0.0,22.8,94.9,999.6,294.6,0.3,0.5,327.8,0.00,22.0,25.5,"06:00:08",1
"17/08/15","06:20",0.4,22.8,94.9,999.6,276.2,0.3,0.8,300.9,0.00,22.0,25.2,"06:14:08",1
"17/08/15","06:30",1.6,22.7,94.9,999.6,309.6,0.3,0.6,322.5,0.00,21.9,25.3,"06:20:48",1
"17/08/15","06:40",3.0,22.7,94.9,999.6,281.0,0.3,0.8,332.8,0.00,21.9,25.3,"06:33:52",1
"17/08/15","06:50",1.2,22.6,94.9,999.8,234.9,0.2,0.5,223.4,0.00,21.8,25.2,"06:40:08",1
"17/08/15","07:00",0.4,22.6,95.1,999.8,307.5,0.2,0.8,335.2,0.00,21.8,25.2,"06:53:04",1
"17/08/15","07:10",0.4,22.7,95.0,999.8,287.4,0.3,0.9,319.8,0.00,21.9,25.1,"07:09:36",1
"17/08/15","07:20",0.2,22.6,95.1,1000.0,251.2,0.5,0.9,322.3,0.00,21.8,24.9,"07:10:16",1
"17/08/15","07:30",0.2,22.8,95.2,999.8,302.1,0.5,1.0,333.8,0.00,22.0,25.0,"07:26:40",1
"17/08/15","07:40",0.2,22.8,95.3,999.6,337.6,0.3,0.9,344.3,0.00,22.0,25.0,"07:36:24",1
"17/08/15","07:50",0.0,22.8,95.3,999.6,333.2,0.8,1.7,341.8,0.01,22.0,25.2,"07:45:52",1
"17/08/15","08:00",0.0,22.9,95.2,998.9,329.4,0.7,1.4,333.2,0.03,22.1,25.1,"07:51:04",1
"17/08/15","08:10",0.4,23.0,95.0,999.1,253.2,0.6,1.3,234.2,0.04,22.2,25.2,"08:07:04",1
"17/08/15","08:20",0.2,23.1,95.1,999.3,254.2,0.5,1.1,239.6,0.04,22.3,25.2,"08:11:12",1
"17/08/15","08:30",0.0,23.3,94.9,999.3,226.9,0.3,0.6,224.3,0.05,22.5,25.2,"08:22:40",1
"17/08/15","08:40",0.0,23.4,94.9,999.1,234.9,0.5,1.0,249.8,0.03,22.6,25.2,"08:31:36",1
"17/08/15","08:50",0.0,23.4,94.5,999.3,293.5,0.7,1.1,319.1,0.03,22.5,25.2,"08:44:16",1
"17/08/15","09:00",0.0,23.5,94.3,999.3,229.6,0.2,0.8,236.9,0.03,22.6,25.1,"08:59:12",1
"17/08/15","09:10",0.0,23.6,94.2,999.1,293.0,0.3,0.9,329.0,0.03,22.7,25.2,"09:04:40",1
"17/08/15","09:20",0.0,23.7,93.5,998.9,289.3,0.2,0.6,290.6,0.08,22.6,25.2,"09:18:56",1
"17/08/15","09:30",0.0,24.0,92.5,998.9,306.9,0.3,0.9,319.9,0.08,22.7,25.1,"09:22:08",1
"17/08/15","09:40",0.0,24.5,90.5,998.9,326.7,0.5,1.4,324.1,0.12,22.9,25.3,"09:37:36",1
"17/08/15","09:50",0.0,24.8,90.4,998.4,338.3,0.8,1.4,337.9,0.10,23.2,25.4,"09:43:36",1
"17/08/15","10:00",0.0,24.9,90.5,998.4,326.4,0.8,1.4,333.6,0.11,23.3,25.5,"09:50:48",1
"17/08/15","10:10",0.0,25.0,88.9,998.6,338.4,0.7,1.4,327.8,0.09,23.1,25.3,"10:01:12",1
"17/08/15","10:20",0.0,25.1,88.3,998.4,329.3,0.6,1.9,345.4,0.12,23.1,25.7,"10:12:16",1
"17/08/15","10:30",0.0,25.2,88.6,998.2,289.3,0.5,1.0,263.3,0.11,23.2,25.6,"10:25:20",1
"17/08/15","10:40",0.0,25.2,88.3,998.4,327.0,1.0,2.0,336.6,0.10,23.2,25.7,"10:37:04",1
"17/08/15","10:50",0.0,25.2,88.3,998.2,324.0,1.1,1.7,345.0,0.11,23.2,25.8,"10:42:08",1
"17/08/15","11:00",0.0,25.9,86.8,998.2,334.5,0.7,1.3,332.1,0.19,23.6,25.7,"10:50:24",1
"17/08/15","11:10",0.0,26.5,84.9,997.9,343.4,0.7,1.3,352.8,0.24,23.8,26.0,"11:06:08",1
"17/08/15","11:20",0.0,26.4,84.8,997.9,318.1,0.7,1.9,341.5,0.19,23.7,26.1,"11:13:28",1
"17/08/15","11:30",0.0,26.8,82.9,997.7,312.5,0.6,1.9,345.4,0.22,23.7,26.2,"11:24:56",1
"17/08/15","11:40",0.0,26.6,83.4,997.4,324.3,0.6,1.6,350.2,0.15,23.6,26.2,"11:37:04",1
"17/08/15","11:50",0.0,26.7,83.4,997.2,317.9,0.7,1.8,347.6,0.13,23.7,26.3,"11:48:00",1
"17/08/15","12:00",0.0,27.3,83.0,997.2,331.7,0.8,1.9,336.6,0.23,24.2,26.2,"11:51:04",1
"17/08/15","12:10",0.0,27.6,79.8,996.5,322.6,0.5,1.3,23.0,0.25,23.8,26.7,"12:08:40",1
"17/08/15","12:20",0.0,27.3,80.8,996.5,343.3,0.8,1.9,340.8,0.14,23.8,26.5,"12:17:04",1
"17/08/15","12:30",0.0,27.3,81.5,996.5,357.8,0.6,1.6,348.9,0.13,23.9,26.6,"12:23:36",1
"17/08/15","12:40",0.0,27.3,81.3,996.3,1.4,0.7,2.1,358.4,0.12,23.9,26.5,"12:32:08",1
"17/08/15","12:50",0.0,27.4,80.9,996.0,357.0,0.7,1.4,348.6,0.11,23.9,26.7,"12:41:20",1
"17/08/15","13:00",0.0,27.4,81.7,996.0,289.5,0.5,1.2,340.1,0.12,24.0,26.7,"12:54:56",1
"17/08/15","13:10",0.0,27.7,80.2,995.6,0.9,0.7,1.8,343.7,0.14,24.0,27.0,"13:02:00",1
"17/08/15","13:20",0.0,27.5,81.9,995.8,338.1,0.8,1.8,341.0,0.09,24.2,26.8,"13:11:44",1
"17/08/15","13:30",0.0,27.5,80.4,996.0,324.5,0.6,1.2,347.0,0.06,23.9,26.9,"13:27:12",1
"17/08/15","13:40",0.0,27.5,83.0,996.0,290.0,0.3,1.3,359.3,0.09,24.4,26.8,"13:39:36",1
"17/08/15","13:50",0.0,27.6,82.2,996.0,327.2,0.7,1.7,350.7,0.08,24.3,26.9,"13:40:24",1
"17/08/15","14:00",0.0,27.4,81.7,995.6,311.3,0.7,1.4,349.9,0.08,24.0,26.9,"13:55:20",1
"17/08/15","14:10",0.0,27.4,81.7,995.3,234.5,0.5,1.3,221.3,0.05,24.0,26.8,"14:07:04",1
"17/08/15","14:20",0.0,27.2,82.2,995.8,280.8,0.6,1.2,290.8,0.03,23.9,26.7,"14:16:56",1
"17/08/15","14:30",0.0,27.1,83.8,995.6,306.5,1.0,1.8,328.3,0.02,24.2,26.7,"14:28:08",1
"17/08/15","14:40",0.0,26.7,85.1,995.8,292.6,0.8,1.4,263.9,0.03,24.0,26.8,"14:35:20",1
"17/08/15","14:50",0.0,26.6,86.0,995.8,325.5,1.1,1.9,349.9,0.03,24.1,26.8,"14:41:28",1
"17/08/15","15:00",0.0,26.8,86.4,995.6,328.9,0.8,1.3,342.4,0.03,24.4,26.7,"14:53:44",1
"17/08/15","15:10",0.0,26.7,87.1,995.6,335.5,1.1,1.9,342.9,0.01,24.4,26.6,"15:01:04",1
"17/08/15","15:20",0.0,26.6,87.7,995.8,334.1,0.8,1.7,336.4,0.02,24.4,26.7,"15:14:48",1
"17/08/15","15:30",0.0,26.6,88.4,995.8,325.6,1.2,2.0,341.2,0.03,24.6,26.7,"15:29:04",1
"17/08/15","15:40",0.2,26.6,88.8,995.8,322.2,1.0,1.6,343.2,0.04,24.6,26.8,"15:30:48",1
"17/08/15","15:50",0.0,26.5,88.5,996.0,333.2,0.8,1.3,334.5,0.04,24.5,26.6,"15:43:12",1
"17/08/15","16:00",0.0,26.5,88.2,995.8,325.5,0.7,1.7,342.0,0.05,24.4,26.6,"15:51:28",1
"17/08/15","16:10",0.0,26.4,87.7,996.0,307.3,0.7,1.4,345.1,0.03,24.2,26.6,"16:02:56",1
"17/08/15","16:20",0.2,26.3,87.7,996.0,260.1,0.6,1.0,246.1,0.05,24.1,26.6,"16:11:28",1
"17/08/15","16:30",0.8,26.3,87.8,996.3,277.0,0.3,0.6,275.8,0.03,24.2,26.7,"16:27:52",1
"17/08/15","16:40",1.8,26.2,89.0,995.8,283.8,0.3,0.9,305.8,0.02,24.3,26.7,"16:35:12",1
"17/08/15","16:50",0.8,25.9,89.8,996.3,295.5,0.5,1.1,340.8,0.01,24.1,26.7,"16:48:08",1
"17/08/15","17:00",0.2,25.6,90.5,996.0,265.0,0.6,1.0,242.0,0.00,24.0,26.6,"16:51:04",1
"17/08/15","17:10",1.0,25.4,91.3,996.3,260.4,0.5,1.0,314.3,0.00,23.9,26.5,"17:07:44",1
"17/08/15","17:20",0.4,25.3,91.6,996.5,236.2,0.6,1.9,234.9,0.00,23.9,26.4,"17:19:36",1
"17/08/15","17:30",1.6,25.2,92.2,996.3,223.5,0.6,1.7,239.4,0.01,23.9,26.5,"17:21:28",1
"17/08/15","17:40",0.4,25.2,92.4,996.5,216.4,0.5,1.2,222.7,0.00,23.9,26.4,"17:35:52",1
"17/08/15","17:50",0.6,25.1,92.5,996.5,187.1,0.6,1.0,161.2,0.00,23.8,26.4,"17:44:24",1
"17/08/15","18:00",1.2,25.0,92.8,996.5,23.6,0.2,0.8,52.9,0.00,23.8,26.5,"17:56:00",1
"17/08/15","18:10",2.6,25.0,93.0,996.7,168.7,0.1,0.8,125.9,0.00,23.8,26.4,"18:04:14",1
"17/08/15","18:20",1.8,24.9,93.2,996.5,108.6,0.2,0.8,216.8,0.00,23.8,26.3,"18:10:40",1
"17/08/15","18:30",1.8,24.9,93.3,996.5,349.1,0.5,1.2,4.2,0.00,23.8,26.0,"18:24:40",1
"17/08/15","18:40",1.4,24.8,93.5,996.7,284.8,0.3,1.0,320.7,0.00,23.7,26.2,"18:31:52",1
"17/08/15","18:50",0.6,24.7,93.8,996.7,200.6,0.5,0.9,200.4,0.00,23.7,26.2,"18:45:12",1
"17/08/15","19:00",0.6,24.7,93.9,997.2,254.1,0.3,0.9,242.3,0.00,23.7,26.1,"18:51:04",1
"17/08/15","19:10",0.6,24.7,94.1,997.0,275.4,0.5,1.0,235.9,0.00,23.7,26.1,"19:01:36",1
"17/08/15","19:20",0.8,24.7,94.2,996.7,272.7,0.2,0.8,326.6,0.00,23.7,26.0,"19:10:02",1
"17/08/15","19:30",1.0,24.7,94.3,997.2,314.6,0.5,1.0,316.2,0.00,23.8,25.9,"19:28:48",1
"17/08/15","19:40",1.0,24.7,94.4,997.2,248.7,0.2,0.9,330.5,0.00,23.8,25.7,"19:30:16",1
"17/08/15","19:50",0.8,24.7,94.5,997.2,279.0,0.3,0.8,311.7,0.00,23.8,26.0,"19:43:12",1
"17/08/15","20:00",0.4,24.7,94.6,997.2,274.4,0.3,0.6,302.7,0.00,23.8,25.8,"19:55:52",1
"17/08/15","20:10",0.4,24.6,94.7,997.4,239.6,0.6,0.8,218.7,0.00,23.7,25.9,"20:08:56",1
"17/08/15","20:20",0.0,24.6,94.7,997.4,233.3,0.7,1.3,226.1,0.00,23.7,25.9,"20:12:32",1
"17/08/15","20:30",0.2,24.5,94.8,997.9,245.2,0.6,1.0,242.1,0.00,23.7,26.0,"20:22:16",1
"17/08/15","20:40",0.2,24.5,94.9,997.7,234.2,0.7,1.0,231.3,0.00,23.7,25.8,"20:37:44",1
"17/08/15","20:50",0.4,24.5,94.9,997.4,277.8,0.6,0.9,271.9,0.00,23.7,25.8,"20:44:48",1
"17/08/15","21:00",0.2,24.4,95.0,997.7,260.5,0.5,0.6,233.9,0.00,23.6,25.9,"20:51:12",1
"17/08/15","21:10",0.2,24.5,95.1,997.7,266.4,0.3,0.8,299.7,0.00,23.7,25.7,"21:02:56",1
"17/08/15","21:20",0.0,24.5,95.2,997.9,266.6,0.5,0.8,291.5,0.00,23.7,25.8,"21:19:04",1
"17/08/15","21:30",0.0,24.5,95.2,997.9,266.4,0.5,0.9,290.7,0.00,23.7,25.8,"21:21:20",1
"17/08/15","21:40",0.0,24.5,95.3,997.9,260.8,0.3,0.5,266.5,0.00,23.7,25.6,"21:31:52",1
"17/08/15","21:50",0.0,24.4,95.3,997.9,251.1,0.5,0.8,242.9,0.00,23.6,25.7,"21:44:24",1
"17/08/15","22:00",0.0,24.5,95.4,998.2,235.8,0.5,0.6,249.5,0.00,23.8,25.9,"21:57:04",1
"17/08/15","22:10",0.0,24.5,95.4,997.9,199.7,0.3,0.5,174.6,0.00,23.8,25.8,"22:03:04",1
"17/08/15","22:20",0.0,24.5,95.4,997.7,256.0,0.5,0.8,297.1,0.00,23.8,25.7,"22:15:28",1
"17/08/15","22:30",0.0,24.5,95.4,997.9,257.4,0.6,1.0,273.1,0.00,23.8,25.9,"22:26:32",1
"17/08/15","22:40",0.0,24.4,95.5,997.9,261.3,0.5,1.0,316.6,0.00,23.7,25.8,"22:34:32",1
"17/08/15","22:50",0.0,24.4,95.5,997.7,298.3,0.5,1.1,313.3,0.00,23.7,25.7,"22:46:08",1
"17/08/15","23:00",0.0,24.4,95.6,997.7,294.7,0.5,1.2,340.8,0.00,23.7,25.8,"22:54:48",1
"17/08/15","23:10",0.0,24.5,95.6,997.9,313.7,0.3,0.8,337.4,0.00,23.8,25.7,"23:05:12",1
"17/08/15","23:20",0.0,24.4,95.6,997.7,304.5,0.3,0.9,337.2,0.00,23.7,25.7,"23:10:24",1
"17/08/15","23:30",0.0,24.5,95.7,997.7,306.8,0.3,0.8,294.0,0.00,23.8,25.5,"23:20:32",1
"17/08/15","23:40",0.0,24.5,95.7,998.2,304.8,0.3,0.9,330.2,0.00,23.8,25.7,"23:32:00",1
"17/08/15","23:50",0.0,24.5,95.7,997.7,230.4,0.6,1.0,230.9,0.00,23.8,25.7,"23:43:20",1
"17/08/15","24:00",0.0,24.4,95.8,997.4,225.5,0.2,0.5,246.8,0.00,23.7,25.6,"23:50:16",1
